Weather History for St. Augustine, FL

Change the Weather History Date:

Monday, November 5, 2012

  Actual Average Record
Temperature  
Mean Temperature 66 °F -  
Max Temperature 71 °F 73 °F 86 °F (1986)
Min Temperature 62 °F 57 °F 43 °F (1991)
Cooling Degree Days 2    
Growing Degree Days 16 (Base 50)    
Moisture  
Dew Point 60 °F    
Average Humidity 84    
Maximum Humidity 100    
Minimum Humidity 59    
Precipitation  
Precipitation 0.00 in - - ()
Sea Level Pressure  
Sea Level Pressure 29.98 in    
Wind  
Wind Speed 8 mph (NW)    
Max Wind Speed 14 mph    
Max Gust Speed 20 mph    
Visibility 8 miles    
Events      
Averages and records for this station are not official NWS values.
T = Trace of Precipitation, MM = Missing Value Source: NWS Daily Summary

Daily Weather History Graph

Daily Weather History Graph

Search for Another Location

Airport:

Trip Planner

Search our weather history database for the weather conditions in past years. The results will help you decide how hot, cold, wet, or windy it might be!

Date:

Astronomy

Nov. 05, 2012 Rise Set
Actual Time 6:42 AM EST 5:34 PM EST
Civil Twilight 6:17 AM EST 5:59 PM EST
Nautical Twilight 5:49 AM EST 6:28 PM EST
Astronomical Twilight 5:21 AM EST 6:56 PM EST
Moon 11:10 PM EST (11/5) 12:00 PM EST (11/5)
Length of Visible Light 11h 42m
Length of Day
10h 52m
Waning Gibbous, 63% of the Moon is Illuminated
Nov 5
Waning Gibbous
Nov 6
Last Quarter
Nov 13
New
Nov 20
First Quarter
Nov 28
Full

Hourly Weather History & Observations

Time (EST) Temp. Dew Point Humidity Pressure Visibility Wind Dir Wind Speed Gust Speed Precip Events Conditions
12:34 AM 62.6 °F 62.6 °F 100% 29.99 in 8.0 mi WSW 8.1 mph - N/A   Partly Cloudy
12:42 AM 62.6 °F 62.6 °F 100% 29.99 in 5.0 mi WSW 10.4 mph - N/A   Mostly Cloudy
12:58 AM 63.0 °F 62.1 °F 97% 29.99 in 3.0 mi WSW 9.2 mph - N/A   Overcast
1:11 AM 62.6 °F 62.6 °F 100% 29.99 in 2.5 mi West 6.9 mph - N/A   Overcast
1:20 AM 64.4 °F 62.6 °F 94% 29.99 in 3.0 mi WSW 8.1 mph - N/A   Overcast
1:58 AM 64.9 °F 63.0 °F 93% 29.98 in 7.0 mi WSW 8.1 mph - N/A   Overcast
2:46 AM 66.2 °F 64.4 °F 94% 29.97 in 8.0 mi WSW 8.1 mph - N/A   Overcast
2:58 AM 66.0 °F 64.0 °F 93% 29.97 in 8.0 mi West 6.9 mph - N/A   Overcast
3:12 AM 66.2 °F 64.4 °F 94% 29.97 in 9.0 mi West 6.9 mph - N/A   Overcast
3:41 AM 66.2 °F 64.4 °F 94% 29.97 in 9.0 mi WSW 8.1 mph - N/A   Mostly Cloudy
3:58 AM 66.0 °F 64.0 °F 93% 29.97 in 9.0 mi West 8.1 mph - N/A   Mostly Cloudy
4:46 AM 66.2 °F 64.4 °F 94% 29.97 in 9.0 mi West 6.9 mph - N/A   Scattered Clouds
4:58 AM 64.9 °F 64.0 °F 97% 29.97 in 8.0 mi West 6.9 mph - N/A   Clear
5:13 AM 64.4 °F 62.6 °F 94% 29.97 in 8.0 mi West 5.8 mph - N/A   Scattered Clouds
5:18 AM 64.4 °F 62.6 °F 94% 29.97 in 8.0 mi West 6.9 mph - N/A   Mostly Cloudy
5:28 AM 64.4 °F 62.6 °F 94% 29.98 in 8.0 mi West 6.9 mph - N/A   Scattered Clouds
5:58 AM 64.9 °F 63.0 °F 93% 29.98 in 7.0 mi WSW 3.5 mph - N/A   Mostly Cloudy
6:02 AM 64.4 °F 62.6 °F 94% 29.98 in 7.0 mi West 3.5 mph - N/A   Mostly Cloudy
6:58 AM 64.9 °F 64.0 °F 97% 29.99 in 5.0 mi WNW 4.6 mph - N/A   Overcast
7:20 AM 64.4 °F 62.6 °F 94% 30.00 in 8.0 mi WNW 4.6 mph - N/A   Mostly Cloudy
7:58 AM 64.9 °F 63.0 °F 93% 30.00 in 5.0 mi NW 5.8 mph - N/A   Scattered Clouds
8:11 AM 66.2 °F 62.6 °F 88% 30.01 in 10.0 mi NW 9.2 mph - N/A   Mostly Cloudy
8:33 AM 66.2 °F 60.8 °F 83% 30.01 in 7.0 mi NNW 9.2 mph - N/A   Scattered Clouds
8:58 AM 66.9 °F 60.1 °F 79% 30.01 in 7.0 mi North 9.2 mph - N/A   Scattered Clouds
9:58 AM 69.1 °F 59.0 °F 70% 30.02 in 10.0 mi NNE 6.9 mph - N/A   Partly Cloudy
10:58 AM 70.0 °F 57.0 °F 63% 30.01 in 10.0 mi NNE 10.4 mph 19.6 mph N/A   Scattered Clouds
11:58 AM 71.1 °F 57.0 °F 61% 29.99 in 10.0 mi NNE 10.4 mph - N/A   Clear
12:58 PM 71.1 °F 57.0 °F 61% 29.97 in 10.0 mi NE 11.5 mph - N/A   Clear
1:58 PM 71.1 °F 55.9 °F 59% 29.96 in 10.0 mi NE 10.4 mph - N/A   Clear
2:58 PM 70.0 °F 55.0 °F 59% 29.96 in 10.0 mi NNE 12.7 mph - N/A   Clear
3:58 PM 68.0 °F 55.0 °F 63% 29.97 in 10.0 mi NNE 13.8 mph - N/A   Clear
4:58 PM 66.0 °F 55.9 °F 70% 29.97 in 10.0 mi NNE 11.5 mph - N/A   Clear
5:58 PM 64.0 °F 55.9 °F 75% 29.99 in 10.0 mi NNE 11.5 mph - N/A   Clear
6:58 PM 64.0 °F 55.9 °F 75% 29.99 in 10.0 mi NNE 10.4 mph - N/A   Clear
7:58 PM 64.0 °F 55.0 °F 73% 30.00 in 10.0 mi NNE 9.2 mph - N/A   Clear
8:58 PM 63.0 °F 55.0 °F 75% 30.00 in 10.0 mi NNE 8.1 mph - N/A   Clear
9:58 PM 64.0 °F 55.0 °F 73% 30.00 in 10.0 mi NNE 6.9 mph - N/A   Clear
10:58 PM 64.0 °F 55.0 °F 73% 29.98 in 10.0 mi ENE 9.2 mph - N/A   Clear
11:58 PM 64.0 °F 55.0 °F 73% 29.96 in 10.0 mi ENE 9.2 mph - N/A   Clear